Date String (YYYY-MM-DD hh:mm:ss) UTC,Instrument flags,Ambient pressure (hPa),Sample flow (lpm),Bypass flow (lpm),Sample temperature (°C),Ambient temperature (°C),ASC tube jacket temperature (°C),LED temperature (°C),Box temperature (°C),Sample RH (%),Span deviation,Mass concentration (μg/m³),Mass concentration (μg/m³),Mass concentration (μg/m³)
DateTimeUTC,F1_M11,P_M11,Q1_M11,Q2_M11,T1_M11,T2_M11,T3_M11,T4_M11,T5_M11,U1_M11,ZSPAN_M11,X0_M11,X2_M11,X1_M11
2021-10-22 08:00:00,,0829.3,5.00,0.00,27.1,26.1,00.0,36.2,28.8,09.6,0000.0,0018.60,0004.17,0002.73
2021-10-22 08:01:00,,0829.3,4.99,0.00,27.1,26.1,00.0,36.2,28.8,09.6,0000.0,0018.18,0004.18,0002.73
2021-10-22 08:02:00,,0829.3,5.01,0.00,27.1,26.1,00.0,36.2,28.8,09.6,0000.0,0017.37,0004.17,0002.72
2021-10-22 08:03:00,,0829.3,4.99,0.00,27.0,26.1,00.0,36.2,28.8,09.6,0000.0,0017.38,0004.16,0002.71
2021-10-22 08:04:00,,0829.2,4.99,0.00,27.0,26.1,00.0,36.2,28.8,09.6,0000.0,0017.32,0004.18,0002.71
2021-10-22 08:05:00,,0829.2,5.01,0.00,27.0,26.1,00.0,36.2,28.8,09.6,0000.0,0017.11,0004.20,0002.71
2021-10-22 08:06:00,,0829.3,5.00,0.00,27.0,26.1,00.0,36.2,28.8,09.6,0000.0,0016.61,0004.17,0002.72
2021-10-22 08:07:00,,0829.2,4.99,0.00,27.0,26.1,00.0,36.2,28.8,09.6,0000.0,0016.67,0004.17,0002.74
2021-10-22 08:08:00,,0829.1,5.01,0.00,27.0,26.1,00.0,36.2,28.8,09.6,0000.0,0016.36,0004.13,0002.77
2021-10-22 08:09:00,,0829.1,4.99,0.00,27.0,26.1,00.0,36.2,28.8,09.6,0000.0,0016.12,0004.16,0002.81
2021-10-22 08:10:00,,0829.1,5.01,0.00,27.0,26.1,00.0,36.1,28.8,09.6,0000.0,0014.44,0004.16,0002.84
2021-10-22 08:11:00,,0829.0,5.01,0.00,27.0,26.1,00.0,36.1,28.8,09.6,0000.0,0013.84,0004.14,0002.86
2021-10-22 08:12:00,,0829.1,4.99,0.00,27.0,26.1,00.0,36.1,28.8,09.6,0000.0,0013.87,0004.12,0002.87
2021-10-22 08:13:00,,0829.0,5.00,0.00,27.0,26.1,00.0,36.1,28.8,09.6,0000.0,0013.80,0004.12,0002.89
2021-10-22 08:14:00,,0829.0,5.00,0.00,27.0,26.1,00.0,36.1,28.8,09.6,0000.0,0014.10,0004.13,0002.92
2021-10-22 08:15:00,,0829.0,5.00,0.00,27.0,26.1,00.0,36.1,28.8,09.6,0000.0,0013.85,0004.15,0002.96
2021-10-22 08:16:00,,0829.0,4.99,0.00,27.0,26.1,00.0,36.1,28.8,09.7,0000.0,0013.84,0004.17,0002.99
2021-10-22 08:17:00,,0829.0,4.99,0.00,27.0,26.1,00.0,36.1,28.8,09.6,0000.0,0013.58,0004.20,0003.02
2021-10-22 08:18:00,,0829.0,5.01,0.00,27.0,26.1,00.0,36.1,28.8,09.7,0000.0,0013.09,0004.19,0003.02
2021-10-22 08:19:00,,0829.0,5.00,0.00,27.0,26.1,00.0,36.1,28.8,09.7,0000.0,0012.71,0004.20,0003.02
2021-10-22 08:20:00,,0829.0,5.00,0.00,27.0,26.1,00.0,36.1,28.8,09.7,0000.0,0012.36,0004.21,0003.01
2021-10-22 08:21:00,,0828.9,5.00,0.00,27.0,26.1,00.0,36.1,28.8,09.7,0000.0,0013.44,0004.26,0003.00
2021-10-22 08:22:00,,0828.9,5.01,0.00,27.0,26.1,00.0,36.1,28.8,09.7,0000.0,0014.52,0004.33,0003.03
2021-10-22 08:23:00,,0829.0,5.01,0.00,27.0,26.1,00.0,36.1,28.8,09.6,0000.0,0015.81,0004.43,0003.06
2021-10-22 08:24:00,,0829.0,4.99,0.00,27.0,26.1,00.0,36.1,28.8,09.6,0000.0,0016.07,0004.47,0003.09
2021-10-22 08:25:00,,0829.0,5.00,0.00,27.0,26.1,00.0,36.1,28.8,09.7,0000.0,0017.32,0004.48,0003.10
2021-10-22 08:26:00,,0829.1,5.00,0.00,27.0,26.1,00.0,36.1,28.8,09.7,0000.0,0017.49,0004.42,0003.10
2021-10-22 08:27:00,,0829.0,5.00,0.00,27.0,26.1,00.0,36.1,28.8,09.8,0000.0,0016.02,0004.40,0003.07
2021-10-22 08:28:00,,0829.0,5.01,0.00,27.0,26.1,00.0,36.1,28.8,09.8,0000.0,0015.68,0004.39,0003.06
2021-10-22 08:29:00,,0829.0,5.00,0.00,27.0,26.1,00.0,36.1,28.7,09.9,0000.0,0015.56,0004.39,0003.06
2021-10-22 08:30:00,,0829.0,4.99,0.00,27.0,26.1,00.0,36.1,28.7,09.9,0000.0,0015.61,0004.39,0003.07
2021-10-22 08:31:00,,0828.9,5.01,0.00,27.0,26.1,00.0,36.1,28.8,09.9,0000.0,0016.29,0004.35,0003.06
2021-10-22 08:32:00,,0829.0,5.00,0.00,27.0,26.1,00.0,36.1,28.7,09.9,0000.0,0016.63,0004.36,0003.07
2021-10-22 08:33:00,,0828.9,4.99,0.00,27.0,26.1,00.0,36.1,28.7,09.9,0000.0,0015.65,0004.28,0003.04
2021-10-22 08:34:00,,0829.0,5.01,0.00,27.0,26.1,00.0,36.1,28.7,09.9,0000.0,0014.52,0004.18,0003.01
2021-10-22 08:35:00,,0828.9,5.00,0.00,27.0,26.1,00.0,36.1,28.7,09.9,0000.0,0014.07,0004.15,0002.98
2021-10-22 08:36:00,,0828.9,4.99,0.00,27.0,26.1,00.0,36.1,28.7,09.9,0000.0,0013.14,0004.14,0002.96
2021-10-22 08:37:00,,0828.9,5.00,0.00,27.0,26.1,00.0,36.1,28.7,09.8,0000.0,0013.43,0004.17,0002.93
2021-10-22 08:38:00,,0828.9,5.01,0.00,27.0,26.1,00.0,36.1,28.7,09.8,0000.0,0013.78,0004.19,0002.94
2021-10-22 08:39:00,,0828.9,5.01,0.00,27.0,26.1,00.0,36.1,28.7,09.8,0000.0,0014.15,0004.17,0002.93
2021-10-22 08:40:00,,0828.9,5.00,0.00,26.9,26.1,00.0,36.1,28.7,09.8,0000.0,0014.53,0004.17,0002.92
2021-10-22 08:41:00,,0828.8,5.01,0.00,26.9,26.1,00.0,36.1,28.7,09.8,0000.0,0014.33,0004.15,0002.90
2021-10-22 08:42:00,,0828.9,4.99,0.00,27.0,26.1,00.0,36.1,28.7,09.8,0000.0,0014.23,0004.19,0002.92
2021-10-22 08:43:00,,0828.9,5.00,0.00,26.9,26.1,00.0,36.0,28.7,09.8,0000.0,0013.28,0004.13,0002.91
2021-10-22 08:44:00,,0828.8,5.00,0.00,26.9,26.0,00.0,36.0,28.7,09.9,0000.0,0013.20,0004.13,0002.92
2021-10-22 08:45:00,,0829.0,5.00,0.00,26.9,26.0,00.0,36.0,28.7,09.9,0000.0,0014.25,0004.16,0002.92
2021-10-22 08:46:00,,0829.0,5.00,0.00,26.9,26.0,00.0,36.0,28.7,09.9,0000.0,0015.08,0004.18,0002.92
2021-10-22 08:47:00,,0828.9,5.01,0.00,26.9,26.0,00.0,36.0,28.7,09.9,0000.0,0014.58,0004.14,0002.90
2021-10-22 08:48:00,,0828.9,4.98,0.00,26.9,26.0,00.0,36.0,28.7,09.9,0000.0,0013.66,0004.13,0002.90
2021-10-22 08:49:00,,0828.9,5.01,0.00,26.9,26.0,00.0,36.0,28.7,09.8,0000.0,0013.44,0004.11,0002.89
2021-10-22 08:50:00,,0828.9,4.99,0.00,26.9,26.0,00.0,36.0,28.7,09.9,0000.0,0014.18,0004.13,0002.91
2021-10-22 08:51:00,,0828.8,4.99,0.00,26.9,26.0,00.0,36.0,28.7,09.9,0000.0,0013.87,0004.13,0002.92
2021-10-22 08:52:00,,0828.9,5.01,0.00,26.9,26.0,00.0,36.0,28.7,10.0,0000.0,0013.76,0004.13,0002.91
2021-10-22 08:53:00,,0829.2,4.99,0.00,26.9,26.0,00.0,36.0,28.7,10.0,0000.0,0013.14,0004.07,0002.87
2021-10-22 08:54:00,,0829.2,5.00,0.00,26.9,26.0,00.0,36.0,28.7,10.0,0000.0,0013.94,0004.02,0002.82
2021-10-22 08:55:00,,0829.3,5.00,0.00,26.9,26.0,00.0,36.0,28.7,10.0,0000.0,0015.21,0004.01,0002.79
2021-10-22 08:56:00,,0829.3,5.00,0.00,26.9,26.0,00.0,36.0,28.7,10.0,0000.0,0014.31,0003.95,0002.76
2021-10-22 08:57:00,,0828.9,5.01,0.00,26.9,26.0,00.0,36.0,28.7,10.0,0000.0,0014.32,0003.93,0002.73
2021-10-22 08:58:00,,0828.9,4.99,0.00,26.9,26.0,00.0,36.0,28.7,10.0,0000.0,0015.54,0003.93,0002.71
2021-10-22 08:59:00,,0828.7,5.01,0.00,26.9,26.0,00.0,36.0,28.7,10.0,0000.0,0016.33,0003.94,0002.69
